Regional Weather Roundup
Issued by NWS

Home | Current Version | Previous Version | Graphics & Text | Print | Product List | Glossary On
Versions: 1 2 3 4 5 6 7 8 9 10 11 12 13 14 15 16 17 18 19 20 21 22 23 24 25 26 27 28 29 30 31 32 33 34 35 36 37 38 39 40 41 42 43 44 45 46 47 48 49 50
855
ASUS43 KBIS 281810
RWRND
NORTH DAKOTA REGIONAL WEATHER ROUNDUP
NATIONAL WEATHER SERVICE EASTERN NORTH DAKOTA/GRAND FORKS ND
100 PM CDT WED JUN 28 2017

  NOTE: "FAIR" INDICATES FEW OR NO CLOUDS BELOW 12,000 FEET WITH NO
  SIGNIFICANT WEATHER AND/OR OBSTRUCTIONS TO VISIBILITY.

NDZ001>003-009>011-017-281900-
...NORTHWEST NORTH DAKOTA...

CITY           SKY/WX    TMP DP  RH WIND       PRES   REMARKS
WILLISTON      FAIR      79  39  23 NE5       29.73S
6HR MIN TEMP:  50; 6HR MAX TEMP:  80;

MINOT          FAIR      75  45  34 NW20G26   29.67R
MINOT AFB      FAIR      74  45  35 NW21      29.66R
6HR MIN TEMP:  59; 6HR MAX TEMP:  74;

$$

NDZ018>021-031>035-040>046-281900-
...SOUTHWEST NORTH DAKOTA...

CITY           SKY/WX    TMP DP  RH WIND       PRES   REMARKS
BISMARCK       FAIR      76  45  33 N17G23    29.68R
DICKINSON      FAIR      78  33  19 NW10G22   29.73S
GARRISON         N/A     73  41  31 N16G23    29.68R
HETTINGER      FAIR      78  31  17 NW14G21   29.76S
$$

NDZ004>008-012>016-024-026-027-054-281900-
...NORTHEAST NORTH DAKOTA...

CITY           SKY/WX    TMP DP  RH WIND       PRES   REMARKS
GRAND FORKS    LGT RAIN  61  61 100 N12       29.54R
GRAND FORKS AF LGT RAIN  61  61 100 N10       29.56R
DEVILS LAKE    PTSUNNY   70  60  70 NW15      29.59R
$$

NDZ022-023-025-028>030-036>039-047>053-281900-
...SOUTHEAST NORTH DAKOTA...

CITY           SKY/WX    TMP DP  RH WIND       PRES   REMARKS
JAMESTOWN      CLOUDY    73  61  65 N21       29.57R
FARGO          CLOUDY    67  63  87 W18       29.48R
WAHPETON       CLOUDY    70  61  73 NW17      29.49R
$$




USA.gov is the U.S. government's official web portal to all federal, state and local government web resources and services.